Other Public Products
Issued by NWS Charleston, SC

Home | Current Version | Previous Version | Text Only | Print | Product List | Glossary On
Versions: 1 2 3 4 5 6 7 8 9 10 11 12 13 14 15 16 17 18 19 20 21 22 23 24 25 26 27 28 29 30 31 32 33 34 35 36 37 38 39 40 41 42 43 44 45 46 47 48 49 50
000
FPUS82 KCHS 291927
OPUCHS

TEST...KCHS/KSAV Gateway Observations...TEST
National Weather Service Charleston SC
300 PM EDT WED MAR 29 2017

NOTE: "fair" indicates few or no clouds below 12,000 feet with no
significant weather and/or obstructions to visibility.

SCZ050-WAZ558-NCZ071-TXZ119-213-PAZ071-DCZ001-FLZ074-172-MI076-
NYZ176-178-MAZ016-IL014-TNZ027-NJZ106-GAZ044-MD014-292000-

...Gateway Observations for Charleston International...

CITY           SKY/WX    TMP DP  RH WIND       PRES   REMARKS
Chas Airport   MOSUNNY   81  57  43 S17       29.99F
Seattle        CLOUDY    55  49  80 S22G28    29.82S
Charlotte      PTSUNNY   77  49  37 VRB5      30.04F
Dallas DFW     MOSUNNY   80  49  33 S23G30    29.70F
Dallas Love    MOSUNNY   78  50  37 S15G25    29.72S
Philladelphia  SUNNY     60  33  36 N14G25    30.08S
Wash National  MOSUNNY   66  39  37 N12       30.10F
Baltimore      MOSUNNY   63  34  33 N6G21     30.09F
Miami          MOSUNNY   83  62  48 SE14      30.02F
Detroit        CLOUDY    55  28  35 E8        30.27F
Newark         MOSUNNY   60  30  32 N20G28    30.04F
Laguardia      MOSUNNY   58  28  32 NW18G28   30.03F
J F K          MOSUNNY   60  33  36 N16G25    30.03F
Boston Logan   CLOUDY    46  31  55 NW15G24   30.02S
Ft. Lauderdale MOSUNNY   82  63  52 SE12      30.01F
Chicago O`Hare CLOUDY    45  35  68 NE12      30.21F
Chicago Midway CLOUDY    47  36  65 NE17G23   30.20F
Houston Bush   TSTM      70  68  93 N8        29.77F
Houston Hobby  TSTM      71  67  87 SE5G21    29.76F
Nashville      MOSUNNY   78  53  41 VRB7      30.02F
Atlanta        MOSUNNY   80  56  43 CALM      30.04S

$$

GAZ044-118-TXZ119-213-NCZ071-DCZ001-MDZ014-506-PAZ021-071-NJZ106-
NYZ176-178-MAZ106-OHZ011-021-055-MIZ076-KYZ091-ILZ014-INZ047-
MNZ060-ONZ431-292000-

...Gateway Observations for Savannah International...

CITY           SKY/WX    TMP DP  RH WIND       PRES   REMARKS
Savannah Arpt  PTSUNNY   85  56  37 E9        29.99F
Atlanta        MOSUNNY   80  56  43 CALM      30.04S
Charlotte      PTSUNNY   77  49  37 VRB5      30.04F
Dallas DFW     MOSUNNY   80  49  33 S23G30    29.70F
Houston Bush   TSTM      70  68  93 N8        29.77F
Wash National  MOSUNNY   66  39  37 N12       30.10F
Wash Dulles    MOSUNNY   62  37  39 N10       30.10F
Baltimore      MOSUNNY   63  34  33 N6G21     30.09F
Philadelphia   SUNNY     60  33  36 N14G25    30.08S
Newark         MOSUNNY   60  30  32 N20G28    30.04F
Laguardia      MOSUNNY   58  28  32 NW18G28   30.03F
J F K          MOSUNNY   60  33  36 N16G25    30.03F
Boston         CLOUDY    46  31  55 NW15G24   30.02S
Pittsburg      MOSUNNY   57  34  41 VRB5      30.16F
Akron          MOSUNNY   56  35  45 N6        30.21R
Cleveland      CLOUDY    52  34  50 N13       30.27S
Cincinnati     CLOUDY    54  44  69 E9        30.16F
Columbus       SUNNY     58  40  51 E10G16    30.17S
Detroit        CLOUDY    55  28  35 E8        30.27F
Chicago O`Hare CLOUDY    45  35  68 NE12      30.21F
Minneapolis    CLOUDY    50  34  54 SE15      30.21F
Indianapolis   MOSUNNY   56  42  59 E16       30.12F
Toronto Canada PTSUNNY   48  28  46 VRB7G18   30.24F

$$




USA.gov is the U.S. government's official web portal to all federal, state and local government web resources and services.